Location: Detroit
(42.3310°N, 83.0460°W)
Time: 19:49:05
(UTC-04:00)

A-11 Canister half - Pass Details

Date: 09 February 2023
Orbit: 1526 x 1682 km, 47.3° (Epoch: 29 March)

Event Time Altitude Azimuth Distance (km) Brightness Sun altitude
Rises 07:42:52 0° 277° (W) 4,676 10.9 0.2°
Reaches altitude 10° 07:45:57 10° 281° (W) 3,694 10.4 0.8°
Maximum altitude 07:55:12 65° 3° (N) 1,664 9.2 2.4°
Drops below altitude 10° 08:04:38 10° 85° (E) 3,760 12.3 4.0°
Sets 08:07:48 0° 88° (E) 4,764 12.9 4.5°
